Location: Unspecified
(0.0000°N, 0.0000°E)
Time: 03:01:15
(UTC+00:00)

Hubble Space Telescope - Pass Details

Date: 10 July 2024
Orbit: 509 x 513 km, 28.5° (Epoch: 24 July)

Event Time Altitude Azimuth Distance (km) Brightness Sun altitude
Exits shadow 05:26:41 - 299° (WNW) 2,605 3.9 -9.0°
Rises 05:26:42 0° 299° (WNW) 2,601 3.9 -9.0°
Reaches altitude 10° 05:28:56 10° 298° (WNW) 1,717 3.0 -8.5°
Maximum altitude 05:32:54 82° 211° (SSW) 515 0.6 -7.5°
Drops below altitude 10° 05:36:52 10° 123° (ESE) 1,718 3.9 -6.6°
Sets 05:39:06 0° 122° (ESE) 2,604 4.8 -6.1°
